Location: Climax
(33.2048°N, 96.4497°W)
Time: 18:39:58
(UTC+00:00)

SL-4 R/B - Pass Details

Date: 11 July 2022
Orbit: 425 x 653 km, 51.6° (Epoch: 16 August)

Event Time Altitude Azimuth Distance (km) Brightness Sun altitude
Rises 03:49:18 0° 255° (WSW) 2,374 5.6 -22.5°
Reaches altitude 10° 03:51:41 10° 270° (W) 1,509 4.8 -22.9°
Maximum altitude 03:54:25 23° 325° (NW) 964 4.0 -23.2°
Drops below altitude 10° 03:57:13 10° 20° (NNE) 1,539 4.7 -23.6°
Sets 03:59:41 0° 35° (NE) 2,434 5.5 -23.9°
